   (1/a)org.= +0.000002, (1/a)fut.= -0.000638 (+/-0.000001), Q= 8.



NAKANO

         **** Don't distribute anyone except personal use only ****

                (C) Copyright 2003 OAA/ComputingSection

write mail from CFAD0::NAKANO on 2003-12-14 18:52:00(JST).

 





◎C/2002 T7の軌道です



 2003年11月と12月の観測は,以前のEMESの軌道(2002年10月12日〜2003年

9月8日まで1586個から決定)から 10"以上の大きなずれを示しました.再

改良の結果,この彗星の(1/a)origin= +0.000002と以前の値ほど,大きくな

く,オ−ルトの雲の外側(もし,あるならば)から来たことを暗示していま

す.従って,その光度については,再検討をしなければいけません.なお,

(1/a)originがマイナスでも,近日点近くで増光した彗星もあります.



    C/2002 T7 (LINEAR)                                                    

Epoch 2004 Apr. 25.0 TT = JDT 2453120.5  

T 2004 Apr. 23.06047 TT                                 Nakano

q   0.6145930            (2000.0)            P               Q

z  -0.0008450      Peri.  157.73665     +0.43442014     -0.83759083

 +/-0.0000007      Node    94.85889     -0.86836582     -0.29180326

e   1.0005194      Incl.  160.58331     -0.23920690     -0.46183597

From 2383 observations 2002 Oct. 12-2003 Dec. 2, mean residual 0".46.

   (1/a)org.= +0.000002, (1/a)fut.= -0.000638 (+/-0.000001), Q= 8.



NAKANO

         **** Don't distribute anyone except personal use only ****

                (C) Copyright 2003 OAA/ComputingSection

write mail from CFAD0::NAKANO on 2003-12-04 02:36:49(JST).

 

    C/2002 T7 (LINEAR)                                                    

Epoch 2004 Apr. 25.0 TT = JDT 2453120.5  

T 2004 Apr. 23.07607 TT                                 Nakano

q   0.6145845            (2000.0)            P               Q

z  -0.0008072      Peri.  157.73800     +0.43438382     -0.83760234

 +/-0.0000033      Node    94.85798     -0.86838195     -0.29176345

e   1.0004961      Incl.  160.58221     -0.23921430     -0.46184025

From 1586 observations 2002 Oct. 12-2003 Sept. 8, mean residual 0".46.

   (1/a)org.= +0.000040, (1/a)fut.= -0.000600 (+/-0.000003), Q= 7.

NAKANO

         **** Don't distribute anyone except personal use only ****

                (C) Copyright 2003 OAA/ComputingSection

write mail from CFAD0::NAKANO on 2003-09-14 04:53:52(JST).





    C/2002 T7 (LINEAR)                                                    

Epoch 2004 Apr. 25.0 TT = JDT 2453120.5  

T 2004 Apr. 23.07630 TT                                 Nakano

q   0.6145879            (2000.0)            P               Q

z  -0.0008076      Peri.  157.73777     +0.43438513     -0.83760071

 +/-0.0000036      Node    94.85786     -0.86838194     -0.29176452

e   1.0004963      Incl.  160.58206     -0.23921195     -0.46184253

From 1461 observations 2002 Oct. 12-2003 Aug. 11, mean residual 0".46.

   (1/a)org.= +0.000040, (1/a)fut.= -0.000601 (+/-0.000004), Q= 7.



NAKANO

         **** Don't distribute anyone except personal use only ****

                (C) Copyright 2003 OAA/ComputingSection

write mail from CFAD0::NAKANO on 2003-08-14 04:29:34(JST).

 

◎C/2002 T7の軌道と予報位置です



 上尾の門田健一氏は,8月2日にこの彗星の観測に成功し,翌3日にこれを

確認しました.氏の CCD全光度は,それぞれ,13.8等,13.6等でした.観測位

置は,以前のEMESと1".5以内に良くあっていました.また,以前に予想したと

おり(YC2390),彗星の原初軌道の軌道長半径の逆数は,少し大きくなりまし

た.



    C/2002 T7 (LINEAR)                                                    

Epoch 2004 Apr. 25.0 TT = JDT 2453120.5  

T 2004 Apr. 23.07383 TT                                 Nakano

q   0.6145797            (2000.0)            P               Q

z  -0.0008098      Peri.  157.73770     +0.43438257     -0.83760033

 +/-0.0000037      Node    94.85766     -0.86838362     -0.29176133

e   1.0004977      Incl.  160.58181     -0.23921051     -0.46184522

From 1427 observations 2002 Oct. 12-2003 Aug. 3, mean residual 0".46.

   (1/a)org.= +0.000037, (1/a)fut.= -0.000603 (+/-0.000004), Q= 7.



以下のm1は,門田氏の観測光度(-0.5等)に合わせたものです.k=8として

5月には,1等級にはなるようです.眼視等級は,もう少し明るいでしょ

うから,この彗星は期待できそうです.

 

Date/        TT  R.A.(2000) Decl.     Delta   r     Daily motion  Mag.  Moon Age

              h    h  m       。  ,                      ,  / PA 。  m1      。

2003 Aug.  1 18  05 27.26  +29 53.8   4.651  4.021     7.1 /  70  13.2   89  .14

           2 18  05 27.77  +29 56.3   4.626  4.009     7.1 /  70  13.2  103  .22

           3 18  05 28.28  +29 58.7   4.602  3.998     7.0 /  69  13.1  117  .33

           4 18  05 28.78  +30 01.2   4.577  3.987     6.9 /  69  13.1  131  .44

           5 18  05 29.28  +30 03.7   4.553  3.976     6.8 /  68  13.1  145  .55

           6 18  05 29.77  +30 06.3   4.528  3.965     6.8 /  68  13.1  159  .66

           7 18  05 30.25  +30 08.9   4.503  3.953     6.7 /  67  13.0  172  .77

           8 18  05 30.72  +30 11.5   4.477  3.942     6.6 /  66  13.0  172  .86

           9 18  05 31.19  +30 14.1   4.452  3.931     6.5 /  66  13.0  158  .93

          10 18  05 31.65  +30 16.8   4.426  3.919     6.4 /  65  13.0  145  .97

          11 18  05 32.10  +30 19.5   4.400  3.908     6.3 /  64  13.0  131 1.00

          12 18  05 32.54  +30 22.2   4.375  3.897     6.3 /  64  12.9  118  .99

          13 18  05 32.97  +30 25.0   4.348  3.885     6.2 /  63  12.9  105  .97

          14 18  05 33.40  +30 27.8   4.322  3.874     6.1 /  62  12.9   92  .93

          15 18  05 33.82  +30 30.6   4.296  3.863     6.0 /  61  12.9   80  .87

          16 18  05 34.22  +30 33.5   4.269  3.851     5.9 /  60  12.8   68  .79

          17 18  05 34.62  +30 36.4   4.242  3.840     5.8 /  59  12.8   56  .71

          18 18  05 35.01  +30 39.3   4.215  3.829     5.7 /  58  12.8   44  .62

          19 18  05 35.38  +30 42.3   4.188  3.817     5.6 /  57  12.8   32  .53

          20 18  05 35.75  +30 45.4   4.161  3.806     5.5 /  56  12.7   21  .43

          21 18  05 36.11  +30 48.4   4.134  3.794     5.4 /  55  12.7   10  .34

          22 18  05 36.45  +30 51.5   4.106  3.783     5.3 /  54  12.7    6  .25

          23 18  05 36.78  +30 54.7   4.079  3.771     5.2 /  52  12.7   17  .17

          24 18  05 37.10  +30 57.9   4.051  3.760     5.1 /  51  12.6   29  .10

          25 18  05 37.41  +31 01.2   4.023  3.748     5.0 /  49  12.6   42  .05

          26 18  05 37.70  +31 04.4   3.995  3.737     4.9 /  47  12.6   55  .01

          27 18  05 37.99  +31 07.8   3.967  3.725     4.8 /  45  12.6   69  .00

          28 18  05 38.25  +31 11.2   3.938  3.714     4.7 /  43  12.5   82  .02

          29 18  05 38.51  +31 14.6   3.910  3.702     4.6 /  41  12.5   97  .05

          30 18  05 38.75  +31 18.1   3.882  3.691     4.6 /  39  12.5  111  .12

          31 18  05 38.97  +31 21.7   3.853  3.679     4.5 /  37  12.5  125  .20

     Sept. 1 18  05 39.18  +31 25.3   3.824  3.668     4.4 /  34  12.4  139  .30

 

Date/  0h TT  R.A.(2000) Decl.     Delta   r     Daily motion  Mag.  Moon Age

                h  m       。  ,                      ,  / PA 。  m1      。

2003 Aug.  4  05 28.41  +29 59.4   4.596  3.995     6.8 /  68  13.1  120  .35

           9  05 30.84  +30 12.1   4.471  3.939     6.4 /  65  13.0  168  .87

          14  05 33.08  +30 25.7   4.342  3.883     6.0 /  61  12.9  102  .96

          19  05 35.10  +30 40.1   4.209  3.826     5.5 /  56  12.8   41  .60

          24  05 36.86  +30 55.5   4.072  3.769     5.0 /  48  12.7   20  .15

          29  05 38.32  +31 12.0   3.931  3.711     4.5 /  38  12.5   86  .02

     Sept. 3  05 39.41  +31 29.8   3.788  3.653     4.2 /  24  12.4  157  .44

           8  05 40.10  +31 49.0   3.643  3.595     4.2 /   7  12.3  134  .92

          13  05 40.30  +32 09.8   3.496  3.536     4.6 / 349  12.1   70  .95

          18  05 39.95  +32 32.2   3.348  3.477     5.5 / 333  12.0   12  .58

          23  05 38.96  +32 56.5   3.199  3.418     6.8 / 320  11.8   53  .12

          28  05 37.22  +33 22.6   3.050  3.358     8.6 / 311  11.6  124  .05

     Oct.  3  05 34.60  +33 50.8   2.902  3.298    10.8 / 304  11.5  162  .52

           8  05 30.97  +34 20.7   2.756  3.237    13.4 / 299  11.3   97  .95

          13  05 26.19  +34 52.4   2.613  3.176    16.4 / 294  11.1   36  .93

          18  05 20.05  +35 25.3   2.474  3.114    19.9 / 290  10.9   27  .55

          23  05 12.38  +35 58.7   2.339  3.052    23.7 / 287  10.7   93  .09

          28  05 02.96  +36 31.3   2.211  2.990    28.0 / 283  10.5  165  .09

     Nov.  2  04 51.59  +37 01.4   2.090  2.927    32.5 / 280  10.3  117  .59

           7  04 38.14  +37 26.5   1.978  2.863    37.3 / 276  10.1   54  .96

          12  04 22.51  +37 43.5   1.876  2.799    42.1 / 273   9.9   17  .92

          17  04 04.77  +37 48.8   1.787  2.735    46.6 / 269   9.8   75  .52

          22  03 45.13  +37 38.3   1.711  2.669    50.5 / 265   9.6  144  .06

          27  03 24.07  +37 08.7   1.650  2.604    53.5 / 261   9.4  131  .13

     Dec.  2  03 02.24  +36 18.1   1.605  2.538    55.1 / 257   9.3   63  .63

           7  02 40.40  +35 06.6   1.575  2.471    55.2 / 252   9.1   19  .97

          12  02 19.32  +33 36.7   1.561  2.403    53.9 / 249   9.0   70  .91

          17  01 59.61  +31 52.6   1.562  2.335    51.3 / 245   8.9  133  .47

          22  01 41.71  +29 59.9   1.575  2.267    47.6 / 242   8.8  142  .03

          27  01 25.84  +28 04.1   1.600  2.197    43.4 / 239   8.8   70  .17

2004 Jan.  1  01 12.03  +26 09.9   1.633  2.127    38.8 / 236   8.7   19  .65

           6  01 00.19  +24 20.8   1.673  2.057    34.3 / 234   8.6   63  .97

          11  00 50.14  +22 38.9   1.717  1.985    30.0 / 232   8.6  125  .89

          16  00 41.69  +21 05.6   1.763  1.913    26.1 / 230   8.5  156  .41

          21  00 34.62  +19 41.2   1.809  1.840    22.5 / 228   8.4   89  .01

          26  00 28.75  +18 25.6   1.854  1.767    19.4 / 226   8.3   24  .20

          31  00 23.87  +17 18.1   1.896  1.692    16.7 / 224   8.2   48  .66

     Feb.  5  00 19.82  +16 18.1   1.934  1.617    14.5 / 222   8.1  107  .98

          10  00 16.45  +15 24.5   1.966  1.542    12.6 / 221   8.0  163  .86

          15  00 13.63  +14 36.6   1.991  1.465    11.1 / 219   7.8  115  .34

          20  00 11.24  +13 53.3   2.009  1.388     9.9 / 217   7.7   45  .00

